Regional Weather Roundup
Issued by NWS

Home | Current Version | Previous Version | Text Only | Print | Product List | Glossary Off
Versions: 1 2 3 4 5 6 7 8 9 10 11 12 13 14 15 16 17 18 19 20 21 22 23 24 25 26 27 28 29 30 31 32 33 34 35 36 37 38 39 40 41 42 43 44 45 46 47 48 49 50

000
ASUS43 KLSX 130307
RWRMO

WEATHER SUMMARY FOR MISSOURI
NATIONAL WEATHER SERVICE SPRINGFIELD MO
1000 PM CDT SAT JUL 12 2014

NOTE: "FAIR" INDICATES FEW OR NO CLOUDS BELOW 12,000 FEET WITH NO
       SIGNIFICANT WEATHER AND/OR OBSTRUCTIONS TO VISIBILITY.
       CURRENT SKY AND/OR WEATHER CONDITIONS ARE NOT AVAILABLE FOR
       CHILLICOTHE AND FARMINGTON.

MOZ001>031-035>038-043-044-053-054-130400-
...NORTHERN AND WESTERN MISSOURI...

CITY           SKY/WX    TMP DP  RH WIND       PRES   REMARKS
KANSAS CTY INT CLEAR     83  68  60 SW16      29.97R
KANSAS C DTWN  CLEAR     87  68  52 S12       29.96R HX  90
LEE`S SUMMIT   CLEAR     84  69  60 S10       30.00R
ST JOSEPH      MOCLDY    83  70  64 S8        29.94R
CHILLICOTHE      N/A     83  74  74 S7        29.96R
KIRKSVILLE     CLOUDY    82  73  74 SW10      29.96R

$$
MOZ066>068-077>081-088>096-101>105-130400-
...SOUTHWEST MISSOURI...

CITY           SKY/WX    TMP DP  RH WIND       PRES   REMARKS
SPRINGFIELD    CLEAR     78  69  73 SW7       30.07R
JOPLIN         CLEAR     81  67  62 S10       30.05R

$$
MOZ032>034-039>042-045>050-055>058-069>072-130400-
...CENTRAL MISSOURI...

CITY           SKY/WX    TMP DP  RH WIND       PRES   REMARKS
COLUMBIA       CLEAR     79  71  76 S9        30.02R
JEFFERSON CITY CLEAR     84  70  62 S6        30.01R
ROLLA          CLEAR     77  69  76 S7        30.05R
SEDALIA        CLEAR     79  72  79 S8        30.02R
OSAGE BEACH    CLEAR     81  70  69 S5        30.04R

$$
MOZ051-052-059>065-130400-
...EAST CENTRAL MISSOURI...

CITY           SKY/WX    TMP DP  RH WIND       PRES   REMARKS
ST LOUIS INTL  MOCLDY    88  70  55 SW12      30.01R HX  93
SPIRIT OF STL  CLEAR     83  70  64 S7        29.99R
ST CHARLES     CLEAR     82  72  71 S7        29.98R

$$
MOZ072>076-082>087-097>100-106>115-130400-
...SOUTH CENTRAL AND SOUTHEAST MISSOURI...

CITY           SKY/WX    TMP DP  RH WIND       PRES   REMARKS
CAPE GIRARDEAU CLEAR     83  72  69 S9        30.04R
FARMINGTON       N/A    N/A N/A N/A MISG        N/A
POPLAR BLUFF   CLEAR     80  69  69 SW3       30.05R
WEST PLAINS    CLEAR     81  70  69 S5        30.10R

$$


USA.gov is the U.S. government's official web portal to all federal, state and local government web resources and services.